This demonstration page uses our WeatherBlox Daily Observations layout. Learn more.

Left ArrowRight Arrow

Hourly Observations for December 31, 2015

Temp ( °F °C ) Dew Point ( °F °C ) Humidity (%) Winds ( mph kmh ) Pressure ( in mb ) Visibility ( mi km ) Precip ( " mm )
12:58 am 00:58 Clear 15 -9.7 10 -12.5 80 80 WNW 6 9 30.39 1029 10 16 0.00 0.00
1:58 am 01:58 Clear 12 -10.9 8 -13.1 84 84 WNW 7 11 30.37 1029 10 16 0.00 0.00
2:58 am 02:58 Clear 12 -11 8 -13.2 84 84 W 2 4 30.41 1030 10 16 0.00 0.00
3:58 am 03:58 Clear 9 -12.8 7 -14.1 90 90 W 1 2 30.41 1030 10 16 0.00 0.00
4:58 am 04:58 Clear 6 -14.2 4 -15.7 89 89 Calm 30.41 1030 9 14 0.00 0.00
5:58 am 05:58 Clear 4 -15.5 1 -17.5 85 85 Calm 30.41 1030 10 16 0.00 0.00
6:58 am 06:58 Clear 3 -16.1 0 -18 85 85 Calm 30.41 1030 10 16 0.00 0.00
7:58 am 07:58 Mostly Sunny 5 -14.9 2 -16.7 86 86 SSE 1 2 30.42 1030 10 16 0.00 0.00
8:58 am 08:58 Sunny 4 -15.3 1 -17.3 85 85 Calm 30.43 1031 10 16 0.00 0.00
9:58 am 09:58 Mostly Cloudy 11 -11.5 9 -12.9 89 89 S 2 4 30.44 1031 10 16 0.00 0.03
10:58 am 10:58 Sunny 17 -8.2 15 -9.3 92 92 E 1 2 30.44 1031 10 16 0.00 0.00
11:36 am 11:36 Mostly Cloudy 18 -8 12 -11 79 79 WNW 1 2 30.48 1032 10 16 0.00 0.00
11:58 am 11:58 Cloudy 21 -5.9 13 -10.8 69 69 SW 7 11 30.43 1031 10 16 0.00 0.00
12:06 pm 12:06 Mostly Cloudy 21 -6 12 -11 68 68 SW 6 9 30.45 1031 10 16 0.00 0.00
12:14 pm 12:14 Partly Cloudy 21 -6 12 -11 68 68 SW 8 13 30.45 1031 10 16 0.00 0.00
12:37 pm 12:37 Mostly Cloudy 23 -5 14 -10 68 68 SW 7 11 30.45 1031 10 16 0.00 0.00
12:39 pm 12:39 Mostly Cloudy 23 -5 14 -10 68 68 SW 7 11 30.45 1031 10 16 0.00 0.00
12:58 pm 12:58 Cloudy 23 -4.9 15 -9.6 70 70 W 8 13 30.42 1030 10 16 0.00 0.00
1:32 pm 13:32 Partly Cloudy 23 -5 16 -9 74 74 WSW 10 17 30.45 1031 10 16 0.00 0.00
1:35 pm 13:35 Sunny 25 -4 16 -9 69 69 W 10 17 30.45 1031 10 16 0.00 0.00
1:58 pm 13:58 Sunny 25 -4 17 -8.5 71 71 WSW 9 15 30.41 1030 10 16 0.00 0.00
2:58 pm 14:58 Sunny 26 -3.6 17 -8.3 70 70 WSW 8 13 30.41 1030 10 16 0.00 0.00
3:58 pm 15:58 Sunny 25 -3.7 12 -10.9 58 58 W 8 13 30.43 1030 10 16 0.00 0.00
4:58 pm 16:58 Sunny 24 -4.3 13 -10.7 61 61 W 3 6 30.44 1031 10 16 0.00 0.00
6:58 pm 18:58 Clear 14 -10.2 9 -12.8 81 81 W 2 4 30.45 1031 10 16 0.00 0.00
7:58 pm 19:58 Partly Cloudy 12 -11.2 8 -13.1 86 86 Calm 30.46 1032 10 16 0.00 0.00
8:58 pm 20:58 Partly Cloudy 13 -10.6 10 -12.5 86 86 SW 3 6 30.46 1032 10 16 0.00 0.00
9:58 pm 21:58 Mostly Cloudy 22 -5.7 15 -9.6 74 74 W 7 11 30.46 1032 10 16 0.00 0.00
10:58 pm 22:58 Partly Cloudy 21 -5.9 15 -9.4 77 77 WSW 8 13 30.46 1031 10 16 0.00 0.00
11:58 pm 23:58 Clear 19 -7.2 13 -10.4 78 78 Calm 30.47 1032 10 16 0.00 0.00

Powered by AerisWeather